Temp
-7 -7 -7 -7 -7 -7 -7 -7 -7 -7 -7 -7 -7 -7 -7 -7 -7 -7 -7 -8 -8 -8 -8 -8 -8 -8 -8 -8 -8 -9 -9 -9 -9 -9 -9 -9 -9 -10 -10 -10 -10 -10
-7 -7 -7 -7 -7 -7 -7 -7 -7 -7 -7 -7 -7 -7 -7 -8 -8 -8 -8 -8 -8 -8 -8 -8 -8 -8 -8 -8 -8 -9 -9 -9 -9 -9 -9 -9 -9 -10 -10 -10 -10 -10
-7 -7 -7 -7 -7 -7 -7 -7 -7 -7 -8 -8 -8 -8 -8 -8 -8 -8 -8 -8 -8 -8 -8 -8 -8 -8 -8 -8 -9 -9 -9 -9 -9 -9 -9 -9 -10 -10 -10 -10 -11 -11
-7 -7 -7 -7 -7 -7 -7 -7 -7 -8 -8 -8 -8 -8 -8 -8 -8 -8 -8 -8 -8 -8 -8 -8 -8 -8 -8 -8 -9 -9 -9 -9 -9 -9 -9 -10 -10 -10 -10 -10 -11 -11
-7 -7 -7 -7 -7 -7 -7 -7 -7 -8 -8 -8 -8 -8 -8 -8 -8 -8 -8 -8 -8 -8 -8 -8 -8 -8 -8 -9 -9 -9 -9 -9 -9 -9 -10 -10 -10 -10 -10 -11 -11 -11
-8 -8 -8 -8 -7 -7 -7 -7 -7 -8 -8 -8 -8 -8 -8 -8 -8 -8 -8 -8 -8 -8 -8 -8 -8 -8 -9 -9 -9 -9 -9 -10 -10 -10 -10 -10 -11 -11 -11 -11 -11 -11
-8 -8 -8 -8 -8 -8 -7 -7 -8 -8 -8 -8 -8 -8 -8 -8 -8 -8 -8 -8 -8 -8 -8 -8 -9 -9 -9 -9 -9 -9 -9 -10 -10 -10 -10 -10 -11 -11 -11 -11 -11 -12
-8 -8 -8 -8 -8 -8 -8 -7 -8 -8 -8 -8 -8 -8 -8 -8 -8 -8 -8 -8 -8 -8 -8 -9 -9 -9 -9 -9 -9 -9 -10 -10 -10 -10 -10 -11 -11 -12 -12 -12 -12 -12
-8 -8 -8 -8 -8 -8 -8 -8 -8 -8 -8 -8 -8 -8 -8 -8 -8 -8 -8 -8 -8 -9 -9 -9 -9 -9 -9 -10 -10 -10 -10 -10 -10 -10 -11 -11 -11 -12 -12 -13 -13 -13
-8 -8 -8 -8 -8 -8 -8 -8 -8 -8 -8 -8 -8 -8 -8 -8 -8 -9 -9 -9 -9 -9 -9 -9 -9 -9 -10 -10 -10 -10 -10 -10 -11 -11 -11 -12 -12 -12 -13 -13 -13 -13
-8 -8 -8 -8 -8 -8 -8 -8 -8 -8 -8 -8 -8 -8 -8 -8 -9 -9 -9 -9 -9 -9 -9 -9 -9 -10 -10 -10 -10 -10 -11 -11 -11 -11 -11 -12 -12 -13 -13 -13 -13 -13
-9 -9 -9 -9 -9 -9 -8 -8 -8 -8 -8 -8 -8 -8 -8 -8 -8 -9 -9 -9 -9 -9 -9 -9 -10 -10 -10 -10 -10 -11 -11 -11 -11 -11 -12 -12 -12 -13 -13 -14 -14 -14
-9 -9 -9 -9 -9 -9 -8 -8 -9 -9 -8 -8 -8 -8 -8 -8 -8 -9 -9 -9 -9 -9 -9 -10 -10 -10 -10 -10 -11 -11 -11 -11 -11 -12 -12 -12 -13 -13 -13 -14 -14 -14
-9 -9 -9 -9 -9 -8 -8 -9 -9 -9 -9 -9 -9 -9 -9 -9 -9 -9 -9 -9 -9 -9 -10 -10 -10 -10 -10 -11 -11 -11 -11 -11 -12 -12 -13 -13 -13 -13 -14 -14 -14 -14
-9 -9 -9 -9 -9 -9 -9 -9 -9 -9 -9 -9 -9 -9 -9 -9 -9 -9 -9 -9 -9 -10 -10 -10 -10 -11 -11 -11 -11 -11 -11 -12 -12 -13 -13 -13 -13 -14 -14 -14 -14 -14
-9 -9 -9 -9 -9 -9 -9 -9 -9 -9 -9 -9 -9 -9 -9 -9 -9 -9 -9 -9 -10 -10 -10 -10 -11 -11 -11 -11 -11 -11 -12 -12 -12 -13 -13 -13 -13 -14 -14 -14 -14 -14
-9 -10 -10 -10 -10 -9 -9 -9 -9 -9 -9 -9 -9 -9 -9 -9 -9 -9 -10 -10 -10 -10 -11 -11 -11 -11 -11 -11 -12 -12 -12 -12 -13 -14 -14 -14 -14 -14 -14 -14 -14 -14
-9 -10 -10 -10 -10 -10 -9 -9 -9 -9 -9 -9 -9 -9 -9 -10 -10 -10 -10 -10 -11 -11 -11 -11 -11 -12 -12 -12 -12 -12 -12 -13 -13 -14 -14 -14 -14 -14 -14 -14 -14 -14
-10 -10 -10 -10 -10 -10 -9 -9 -9 -9 -9 -10 -10 -10 -10 -10 -10 -10 -10 -10 -11 -11 -11 -11 -11 -12 -12 -12 -12 -13 -13 -13 -14 -14 -14 -14 -14 -14 -14 -14 -14 -14
-10 -10 -10 -10 -10 -9 -9 -9 -9 -10 -10 -10 -10 -10 -10 -10 -11 -11 -11 -11 -11 -11 -11 -12 -12 -12 -12 -13 -13 -13 -13 -13 -14 -14 -14 -14 -14 -14 -14 -14 -14 -14
-10 -10 -10 -10 -10 -9 -9 -9 -10 -10 -10 -11 -11 -11 -11 -11 -11 -11 -11 -11 -11 -11 -12 -12 -12 -12 -12 -13 -13 -13 -13 -14 -14 -14 -14 -15 -15 -14 -14 -14 -14 -14
-10 -10 -10 -10 -10 -10 -10 -10 -10 -10 -10 -11 -11 -11 -12 -12 -12 -12 -12 -12 -12 -12 -12 -12 -12 -12 -13 -13 -13 -13 -14 -14 -14 -14 -15 -15 -15 -14 -14 -14 -14 -14
-10 -10 -10 -10 -10 -10 -10 -10 -10 -10 -11 -11 -11 -12 -12 -12 -12 -12 -12 -12 -12 -12 -12 -12 -12 -13 -13 -14 -14 -14 -14 -14 -14 -15 -15 -15 -15 -14 -14 -14 -14 -14
-10 -10 -10 -10 -10 -10 -11 -11 -11 -11 -11 -11 -11 -12 -12 -12 -12 -12 -12 -12 -12 -12 -13 -13 -13 -13 -14 -14 -14 -14 -14 -14 -14 -15 -15 -15 -15 -14 -14 -14 -14 -14
-11 -11 -11 -11 -11 -11 -11 -11 -11 -11 -11 -11 -12 -12 -12 -12 -12 -12 -12 -12 -12 -12 -13 -13 -13 -14 -14 -14 -14 -14 -14 -14 -15 -15 -15 -15 -15 -14 -14 -14 -14 -14
-12 -11 -11 -11 -11 -11 -11 -11 -11 -12 -12 -12 -12 -13 -13 -13 -13 -13 -12 -12 -12 -13 -13 -13 -14 -14 -14 -14 -14 -14 -14 -14 -14 -14 -14 -15 -15 -14 -14 -14 -14 -14
Height
5898 5896 5895 5894 5892 5891 5889 5888 5886 5885 5883 5882 5880 5878 5876 5875 5873 5871 5869 5867 5865 5863 5862 5860 5857 5855 5853 5850 5848 5845 5843 5841 5838 5837 5834 5832 5830 5828 5826 5825 5823 5822
5895 5893 5892 5891 5889 5888 5886 5884 5883 5881 5880 5878 5877 5875 5873 5871 5869 5867 5865 5863 5862 5860 5858 5856 5853 5851 5849 5847 5844 5842 5839 5836 5834 5832 5830 5828 5826 5824 5822 5820 5819 5817
5891 5890 5889 5888 5887 5885 5883 5882 5880 5878 5877 5875 5873 5872 5870 5868 5866 5864 5862 5860 5858 5856 5853 5851 5849 5847 5845 5842 5840 5838 5835 5832 5830 5828 5826 5823 5822 5820 5817 5815 5814 5812
5888 5887 5886 5885 5883 5882 5880 5878 5877 5875 5874 5872 5870 5868 5866 5864 5862 5861 5858 5856 5854 5851 5849 5847 5844 5842 5840 5838 5835 5833 5830 5827 5825 5823 5821 5818 5816 5815 5813 5811 5809 5807
5884 5883 5882 5881 5880 5878 5876 5875 5873 5872 5870 5868 5866 5865 5863 5861 5858 5856 5854 5852 5849 5847 5844 5842 5839 5837 5835 5833 5830 5828 5825 5822 5819 5817 5815 5812 5810 5808 5807 5805 5803 5801
5881 5880 5879 5877 5876 5874 5872 5871 5869 5868 5867 5865 5862 5860 5858 5856 5854 5852 5849 5847 5845 5842 5839 5837 5834 5832 5829 5828 5825 5822 5819 5816 5813 5811 5808 5806 5804 5802 5800 5799 5796 5794
5878 5876 5875 5873 5872 5870 5869 5867 5866 5865 5863 5861 5859 5857 5854 5852 5850 5847 5845 5842 5840 5837 5835 5832 5829 5826 5824 5822 5819 5816 5813 5810 5807 5804 5801 5799 5797 5795 5794 5792 5790 5787
5874 5873 5872 5870 5868 5867 5865 5864 5862 5861 5860 5858 5856 5853 5851 5848 5846 5843 5841 5838 5835 5832 5830 5827 5824 5821 5818 5815 5813 5811 5808 5805 5801 5798 5795 5792 5790 5788 5787 5785 5784 5782
5871 5870 5869 5867 5865 5863 5861 5860 5858 5857 5856 5855 5852 5850 5847 5845 5842 5839 5836 5833 5830 5828 5825 5822 5820 5816 5813 5810 5807 5805 5803 5800 5796 5793 5790 5787 5784 5782 5780 5779 5778 5776
5867 5866 5865 5863 5861 5859 5857 5856 5854 5852 5851 5850 5848 5845 5842 5839 5837 5834 5831 5829 5826 5823 5820 5817 5815 5812 5808 5805 5802 5799 5797 5795 5791 5787 5784 5781 5778 5776 5774 5772 5771 5769
5863 5862 5861 5859 5856 5854 5853 5851 5850 5848 5846 5844 5842 5840 5837 5835 5832 5830 5827 5825 5822 5818 5815 5812 5809 5807 5803 5800 5797 5794 5791 5789 5785 5782 5779 5775 5773 5770 5768 5766 5764 5762
5860 5859 5856 5854 5852 5850 5848 5847 5845 5844 5842 5840 5838 5835 5833 5831 5828 5825 5822 5819 5817 5814 5811 5807 5804 5802 5798 5795 5792 5789 5785 5782 5779 5775 5772 5770 5767 5764 5762 5760 5758 5756
5857 5855 5851 5849 5847 5845 5844 5843 5841 5839 5837 5835 5833 5830 5828 5825 5823 5821 5817 5814 5812 5809 5806 5802 5799 5797 5794 5790 5787 5785 5781 5777 5773 5769 5766 5764 5761 5759 5756 5754 5752 5750
5852 5850 5847 5844 5842 5841 5840 5839 5837 5835 5833 5830 5828 5825 5823 5820 5818 5816 5813 5810 5807 5804 5801 5798 5794 5792 5789 5786 5783 5780 5777 5773 5769 5765 5761 5759 5756 5753 5751 5749 5747 5745
5847 5844 5842 5840 5838 5837 5836 5834 5833 5831 5829 5826 5824 5821 5818 5816 5813 5810 5808 5805 5802 5799 5796 5793 5790 5787 5783 5781 5778 5775 5772 5768 5765 5761 5758 5755 5752 5749 5746 5744 5742 5740
5841 5839 5837 5835 5834 5833 5831 5830 5828 5826 5824 5822 5819 5816 5813 5810 5808 5805 5803 5799 5797 5794 5791 5788 5785 5782 5778 5775 5772 5769 5766 5763 5759 5756 5754 5751 5749 5745 5743 5740 5737 5735
5837 5834 5833 5831 5829 5828 5827 5825 5823 5822 5819 5817 5814 5811 5808 5805 5803 5800 5797 5794 5791 5788 5786 5783 5780 5777 5773 5770 5766 5762 5759 5756 5753 5750 5748 5746 5744 5742 5739 5736 5734 5731
5832 5830 5828 5827 5825 5824 5822 5821 5819 5817 5814 5811 5809 5806 5803 5800 5797 5795 5792 5790 5787 5784 5781 5778 5776 5772 5769 5765 5761 5757 5753 5749 5747 5745 5743 5741 5740 5737 5735 5733 5730 5727
5826 5825 5823 5822 5821 5820 5818 5817 5815 5812 5809 5806 5803 5801 5798 5795 5792 5789 5787 5784 5782 5779 5776 5773 5771 5768 5764 5760 5756 5752 5748 5745 5742 5740 5738 5737 5735 5734 5731 5729 5726 5724
5821 5820 5819 5818 5817 5816 5814 5813 5811 5808 5804 5801 5798 5795 5792 5789 5787 5784 5781 5779 5777 5774 5771 5768 5765 5762 5758 5754 5750 5747 5743 5741 5738 5737 5735 5733 5731 5730 5728 5725 5723 5720
5818 5817 5816 5815 5814 5812 5811 5808 5806 5803 5799 5796 5793 5790 5787 5784 5782 5779 5776 5774 5772 5769 5766 5763 5759 5756 5752 5749 5745 5742 5739 5736 5734 5733 5731 5729 5728 5726 5724 5721 5719 5717
5814 5814 5813 5811 5810 5808 5806 5804 5801 5799 5794 5791 5788 5786 5783 5780 5777 5774 5771 5768 5766 5763 5760 5757 5753 5750 5746 5743 5740 5738 5735 5732 5731 5729 5727 5726 5724 5722 5720 5718 5716 5714
5811 5811 5810 5808 5807 5804 5802 5799 5796 5793 5790 5786 5784 5781 5778 5776 5773 5770 5767 5764 5760 5757 5754 5751 5747 5744 5741 5738 5735 5733 5731 5729 5727 5726 5724 5722 5721 5719 5717 5715 5713 5711
5808 5807 5806 5804 5803 5800 5797 5794 5791 5788 5785 5782 5779 5777 5774 5771 5768 5765 5763 5760 5756 5752 5748 5745 5742 5739 5737 5734 5731 5729 5727 5725 5723 5722 5720 5718 5717 5716 5713 5711 5710 5708
5804 5803 5802 5800 5798 5795 5792 5790 5786 5783 5780 5777 5774 5772 5769 5767 5764 5761 5759 5756 5752 5748 5744 5740 5738 5735 5732 5729 5727 5725 5723 5721 5719 5718 5717 5715 5714 5712 5710 5708 5706 5705
5800 5798 5797 5795 5793 5790 5787 5785 5781 5778 5774 5772 5770 5767 5764 5762 5759 5757 5754 5751 5746 5743 5740 5736 5733 5730 5727 5725 5723 5721 5718 5717 5716 5714 5713 5712 5710 5709 5707 5705 5703 5702
Wind_Speed
26 27 29 30 30 31 32 33 33 33 33 33 34 35 35 35 35 36 36 37 37 37 37 37 38 39 40 40 40 41 41 41 41 42 43 44 44 45 44 43 43 42
27 28 30 31 32 32 33 34 35 35 35 35 35 35 36 36 36 37 37 37 38 38 39 39 40 40 41 41 42 42 42 42 42 42 43 43 44 45 45 45 45 44
28 30 31 32 33 33 34 35 35 36 36 36 36 36 36 36 36 37 37 38 39 39 40 40 41 42 43 43 43 43 43 43 43 43 43 44 44 44 45 46 46 46
28 31 33 34 35 35 35 35 36 36 36 37 37 37 37 37 37 37 38 39 40 40 41 42 43 43 44 44 44 44 44 44 44 44 45 45 45 45 46 47 48 48
30 32 34 35 36 36 36 36 36 36 36 37 38 38 37 37 38 39 39 40 40 41 42 43 44 45 45 45 45 44 44 44 45 46 47 47 47 47 47 48 49 51
31 33 35 36 37 37 37 37 37 37 37 37 38 38 38 38 39 39 40 41 41 42 43 44 45 46 46 46 45 45 45 44 45 47 48 49 49 48 46 47 50 51
32 34 36 37 37 37 37 36 36 36 36 37 37 38 39 39 40 40 41 42 43 43 44 45 46 47 47 46 46 46 45 45 46 48 49 50 50 49 47 46 47 47
33 34 36 36 36 37 37 36 35 35 35 36 36 37 38 39 40 41 42 43 44 45 45 45 46 47 47 47 47 46 46 46 47 49 50 51 51 51 48 43 41 43
33 35 36 36 36 37 36 35 35 35 36 36 37 37 38 39 40 41 43 44 45 46 46 46 46 46 46 47 47 47 47 47 48 50 51 52 52 52 49 44 42 44
36 37 37 36 35 35 35 35 36 36 37 37 38 39 41 41 42 42 44 45 45 46 46 46 46 46 46 46 47 47 47 48 49 51 52 52 52 52 50 47 44 44
39 38 37 36 35 34 35 36 37 37 38 39 40 41 43 43 43 43 44 44 45 45 46 46 47 47 46 47 47 48 48 49 50 51 52 52 51 51 49 46 44 42
39 38 37 35 34 34 36 37 38 38 39 40 41 43 44 44 44 45 45 45 45 45 46 47 48 48 48 48 48 48 49 50 51 51 51 51 49 48 47 45 42 40
38 36 36 35 35 36 37 38 39 40 41 42 44 46 46 46 46 46 47 46 46 47 47 48 49 49 49 49 49 48 49 49 49 49 49 48 47 46 45 42 40 38
36 35 35 36 37 38 38 39 40 41 43 45 46 48 48 48 47 47 47 47 47 48 48 49 49 49 49 50 49 49 49 48 47 47 47 46 45 44 42 40 38 36
37 35 35 36 38 39 39 40 41 42 44 46 48 48 49 48 48 48 48 48 48 48 48 49 49 49 50 51 51 50 49 47 47 46 45 45 43 41 39 37 35 34
37 37 37 38 38 39 40 41 42 44 46 48 48 49 49 49 49 49 49 49 49 48 49 50 49 49 50 51 51 50 49 48 47 45 43 42 41 39 36 35 34 32
38 38 39 39 40 40 41 42 44 46 48 49 49 49 50 50 50 49 49 49 49 49 50 50 49 49 50 51 50 50 48 48 46 43 40 40 39 37 34 33 32 32
38 39 40 40 41 42 43 45 46 48 50 50 50 49 50 49 49 50 50 50 49 49 50 50 49 49 49 50 49 48 47 47 44 41 39 38 37 35 32 31 31 32
40 40 41 42 42 43 45 46 48 50 51 51 50 50 49 48 48 50 51 51 49 49 49 49 49 49 49 49 48 46 45 44 42 38 37 36 35 32 31 30 30 31
40 41 42 43 44 45 46 47 49 50 51 50 50 49 47 47 49 50 51 50 49 49 49 48 48 49 49 48 46 44 43 42 38 35 34 34 33 31 30 30 30 30
41 41 42 44 45 46 47 49 50 51 51 50 49 48 47 47 48 48 49 49 49 48 48 48 49 50 47 45 44 42 41 39 35 32 31 32 30 29 30 30 29 29
41 42 43 45 46 48 49 50 51 51 51 51 49 47 46 45 46 47 48 48 48 48 48 48 49 48 45 43 42 40 38 37 33 30 30 30 29 28 29 29 28 29
42 43 44 45 47 48 50 51 51 51 51 51 48 45 43 43 45 46 47 47 47 47 47 48 47 45 43 42 41 39 37 35 32 29 29 29 28 27 28 29 28 28
43 44 45 46 47 48 50 50 51 51 51 50 47 43 42 44 45 46 46 47 46 47 48 47 45 43 41 40 40 38 36 34 31 28 28 28 27 27 28 29 28 28
45 45 45 46 48 49 49 49 50 51 51 50 46 43 43 43 44 45 45 45 45 47 47 46 43 42 41 39 39 38 35 32 29 27 27 27 27 28 28 28 28 28
46 46 46 46 47 48 49 49 50 51 50 48 43 42 43 42 42 43 43 44 46 46 44 43 43 43 40 38 38 37 33 30 27 25 26 26 27 28 28 28 28 28
Wind_Direction
312 313 313 313 312 311 310 310 311 313 314 314 314 313 314 314 314 313 312 311 311 311 311 311 312 313 314 314 315 315 315 315 315 316 315 313 311 309 307 306 305 303
310 313 314 314 313 311 309 309 309 311 312 313 313 313 314 314 314 313 311 309 309 308 309 309 310 311 312 313 313 313 313 313 313 313 313 312 310 308 306 304 303 301
309 311 312 312 312 311 309 308 307 309 310 311 312 313 314 314 313 312 310 309 308 307 307 307 307 309 310 311 312 312 311 310 310 311 310 309 307 306 304 302 301 299
308 310 311 312 312 312 310 308 307 308 309 310 312 313 314 315 313 312 311 310 309 308 307 307 307 308 310 311 311 311 310 309 309 309 308 308 306 304 302 300 298 297
308 310 311 312 312 312 310 309 308 308 309 310 311 313 314 314 313 313 312 311 309 308 307 307 308 309 310 311 311 310 309 309 308 308 308 307 306 304 302 299 297 296
309 310 312 313 313 312 311 310 309 309 309 310 311 313 313 313 313 313 312 311 310 309 309 309 309 310 310 311 311 311 310 309 308 308 308 307 306 305 303 301 298 295
310 311 312 313 312 311 310 309 309 309 310 311 312 313 314 313 314 313 313 312 312 311 310 310 310 310 311 312 312 311 311 310 309 309 308 307 306 305 303 301 297 294
308 310 311 312 311 311 309 309 308 307 307 308 311 313 314 314 314 314 314 313 313 312 311 311 311 311 312 312 312 311 311 311 311 310 308 307 306 305 305 301 294 291
308 310 312 312 312 311 310 309 308 306 305 306 307 311 313 314 315 315 315 314 314 312 311 311 311 312 313 313 312 312 312 312 312 310 308 306 306 305 305 301 295 293
310 312 313 313 313 311 310 310 308 307 307 306 308 311 313 316 316 316 315 314 313 311 311 312 312 313 314 313 312 312 313 313 311 310 307 305 305 305 304 302 300 297
311 312 313 314 314 312 311 311 310 310 310 312 314 315 316 316 316 315 314 312 312 312 312 313 314 315 314 313 313 313 313 313 311 309 307 305 305 304 303 302 301 299
309 311 314 315 315 313 312 313 313 314 315 316 318 317 316 315 315 315 313 313 313 314 314 314 315 315 315 313 313 314 314 313 311 309 307 305 305 304 303 302 300 298
308 311 315 317 315 313 313 314 314 316 318 319 319 317 316 315 315 314 314 314 315 315 315 315 315 315 315 313 313 315 315 313 310 307 306 306 305 304 304 302 299 298
309 313 315 315 314 313 313 314 315 318 320 320 319 317 315 315 315 315 315 315 315 316 316 316 316 315 314 313 314 316 315 312 309 306 305 306 305 304 304 303 300 299
311 314 315 314 313 313 314 315 317 320 320 319 317 315 314 315 315 315 315 315 315 316 317 317 316 315 314 315 316 316 315 312 307 304 304 305 303 303 304 303 301 299
312 314 315 314 314 314 315 316 318 320 319 317 315 315 314 314 315 315 316 315 316 317 317 317 316 315 315 317 317 316 315 311 306 303 303 304 302 301 304 303 301 300
312 314 315 315 315 316 316 317 319 318 316 315 315 314 314 314 314 315 316 316 317 318 317 316 316 316 317 318 318 317 314 310 307 304 303 304 302 300 303 303 300 299
313 315 315 316 316 316 316 317 317 316 315 315 314 314 314 313 315 316 317 317 317 317 317 316 316 317 318 319 318 316 312 310 308 305 302 303 302 300 301 302 300 299
314 315 316 316 315 315 315 315 314 314 314 314 314 315 314 314 316 318 317 317 317 317 316 316 316 318 320 320 318 315 312 311 309 306 302 302 301 300 300 300 300 300
314 315 315 315 314 313 313 312 312 313 313 313 315 317 315 315 317 317 316 316 316 316 316 316 317 320 322 321 318 315 313 312 310 306 303 303 302 301 301 300 300 302
313 313 312 312 311 310 310 310 310 311 312 314 317 317 315 314 315 315 314 314 315 316 317 317 319 322 322 319 316 315 314 313 310 305 304 305 303 302 301 300 302 305
311 310 310 310 308 308 308 308 309 311 312 314 317 316 313 313 314 313 312 314 315 317 318 319 320 321 320 318 315 315 316 313 308 305 304 305 305 303 302 302 305 307
308 307 306 305 305 305 306 307 309 310 311 313 316 313 311 313 313 311 312 313 315 317 317 319 320 320 319 317 315 315 316 313 307 304 304 305 304 303 302 304 308 309
303 302 302 302 302 303 304 306 309 309 310 313 313 310 310 313 313 311 312 314 315 316 317 319 320 319 318 316 315 315 314 310 306 304 303 303 303 303 303 304 308 310
299 299 300 301 301 303 305 307 309 309 310 313 311 309 311 313 311 310 312 314 315 316 317 319 319 319 317 315 315 315 313 307 303 302 301 301 302 304 304 304 306 309
296 297 299 301 302 304 306 308 309 309 310 311 310 309 310 310 309 310 313 315 316 318 318 318 319 318 316 316 316 316 312 306 302 301 300 300 303 306 305 304 305 309